,,PA_Meas_PMT16A,,PR_Meas_QMR101_102,,RH_Meas_QMH101,,SR_Meas_QMS101,,TA_Meas_QMH101,,GenWind,,GenWind,
time,status,PA,status,PR,status,RH,status,SR,status,TA,status,DirAvg,status,SpdAvg,
2013-07-22, 00:00:04,VALID,916.502,VALID,0,VALID,87.0747,VALID,0,VALID,18.6109,VALID,1,VALID,0,
2013-07-22, 00:01:04,VALID,916.513,VALID,0,VALID,86.9832,VALID,0,VALID,18.6109,VALID,18,VALID,0,
2013-07-22, 00:02:04,VALID,916.521,VALID,0,VALID,87.1738,VALID,0,VALID,18.572,VALID,18,VALID,0,
2013-07-22, 00:03:04,VALID,916.5,VALID,0,VALID,87.0899,VALID,0.107441,VALID,18.5525,VALID,18,VALID,0,
2013-07-22, 00:04:04,VALID,916.488,VALID,0,VALID,86.8688,VALID,0.107441,VALID,18.4731,VALID,18,VALID,0,
2013-07-22, 00:05:04,VALID,916.464,VALID,0,VALID,86.7545,VALID,0.107441,VALID,18.416,VALID,18,VALID,0,
2013-07-22, 00:06:04,VALID,916.459,VALID,0,VALID,86.7087,VALID,0,VALID,18.3185,VALID,18,VALID,0,
2013-07-22, 00:07:04,VALID,916.472,VALID,0,VALID,87.959,VALID,0,VALID,18.2601,VALID,358,VALID,0,
2013-07-22, 00:08:04,VALID,916.413,VALID,0,VALID,88.2182,VALID,0,VALID,18.2406,VALID,358,VALID,0,
2013-07-22, 00:09:04,VALID,916.41,VALID,0,VALID,87.3948,VALID,0,VALID,18.1821,VALID,12,VALID,0,
2013-07-22, 00:10:04,VALID,916.39,VALID,0,VALID,88.607,VALID,0.107441,VALID,18.1626,VALID,354,VALID,0,
2013-07-22, 00:11:04,VALID,916.377,VALID,0,VALID,88.1496,VALID,0.107441,VALID,18.1431,VALID,354,VALID,0,
2013-07-22, 00:12:04,VALID,916.361,VALID,0,VALID,88.8738,VALID,0,VALID,18.1431,VALID,335,VALID,0,
2013-07-22, 00:13:04,VALID,916.358,VALID,0,VALID,87.8827,VALID,0,VALID,18.0846,VALID,342,VALID,0,
2013-07-22, 00:14:04,VALID,916.331,VALID,0,VALID,89.2397,VALID,0.107441,VALID,18.0638,VALID,342,VALID,0,
2013-07-22, 00:15:04,VALID,916.375,VALID,0,VALID,89.8877,VALID,0,VALID,18.1236,VALID,346,VALID,0,
2013-07-22, 00:16:04,VALID,916.387,VALID,0,VALID,90.0325,VALID,0,VALID,18.1445,VALID,342,VALID,0,
2013-07-22, 00:17:04,VALID,916.398,VALID,0,VALID,89.5218,VALID,0,VALID,18.1835,VALID,342,VALID,0,
2013-07-22, 00:18:04,VALID,916.376,VALID,0,VALID,88.3935,VALID,0,VALID,18.203,VALID,22,VALID,0,
2013-07-22, 00:19:04,VALID,916.383,VALID,0,VALID,88.7137,VALID,0,VALID,18.2238,VALID,10,VALID,0,
2013-07-22, 00:20:04,VALID,916.336,VALID,0,VALID,89.0644,VALID,0,VALID,18.2615,VALID,354,VALID,0,
2013-07-22, 00:21:04,VALID,916.339,VALID,0,VALID,88.2029,VALID,0,VALID,18.2615,VALID,345,VALID,0,
2013-07-22, 00:22:04,VALID,916.324,VALID,0,VALID,88.8204,VALID,0,VALID,18.2615,VALID,345,VALID,0,
2013-07-22, 00:23:04,VALID,916.329,VALID,0,VALID,88.8204,VALID,0,VALID,18.2809,VALID,345,VALID,0,
2013-07-22, 00:24:04,VALID,916.346,VALID,0,VALID,89.0567,VALID,0,VALID,18.3394,VALID,350,VALID,0,
2013-07-22, 00:25:04,VALID,916.335,VALID,0,VALID,88.5917,VALID,0,VALID,18.3979,VALID,358,VALID,0,
2013-07-22, 00:26:04,VALID,916.326,VALID,0,VALID,88.4392,VALID,0,VALID,18.4369,VALID,3,VALID,0,
2013-07-22, 00:27:04,VALID,916.322,VALID,0,VALID,87.5626,VALID,0,VALID,18.4355,VALID,19,VALID,0,
2013-07-22, 00:28:04,VALID,916.372,VALID,0,VALID,87.7379,VALID,0,VALID,18.4759,VALID,359,VALID,0,
2013-07-22, 00:29:04,VALID,916.35,VALID,0,VALID,88.3097,VALID,0,VALID,18.5358,VALID,2,VALID,0,
2013-07-22, 00:30:04,VALID,916.33,VALID,0,VALID,88.0962,VALID,0,VALID,18.5358,VALID,359,VALID,0,
2013-07-22, 00:31:04,VALID,916.296,VALID,0,VALID,88.2639,VALID,0,VALID,18.5358,VALID,359,VALID,0,
2013-07-22, 00:32:04,VALID,916.302,VALID,0,VALID,88.1648,VALID,0,VALID,18.5149,VALID,359,VALID,0,
2013-07-22, 00:33:04,VALID,916.286,VALID,0,VALID,88.2029,VALID,0,VALID,18.5344,VALID,359,VALID,0,
2013-07-22, 00:34:04,VALID,916.282,VALID,0,VALID,87.5092,VALID,0,VALID,18.4954,VALID,359,VALID,0,
2013-07-22, 00:35:04,VALID,916.291,VALID,0,VALID,87.9056,VALID,0,VALID,18.4564,VALID,359,VALID,0,
2013-07-22, 00:36:04,VALID,916.287,VALID,0,VALID,87.7913,VALID,0,VALID,18.4174,VALID,359,VALID,0,
2013-07-22, 00:37:04,VALID,916.303,VALID,0,VALID,88.607,VALID,0,VALID,18.3979,VALID,11,VALID,0,
2013-07-22, 00:38:04,VALID,916.277,VALID,0,VALID,88.4088,VALID,0,VALID,18.3589,VALID,11,VALID,0,
2013-07-22, 00:39:04,VALID,916.268,VALID,0,VALID,89.0644,VALID,0,VALID,18.3394,VALID,333,VALID,0,
2013-07-22, 00:40:04,VALID,916.263,VALID,0,VALID,89.2397,VALID,0,VALID,18.3589,VALID,333,VALID,0,
2013-07-22, 00:41:04,VALID,916.245,VALID,0,VALID,88.7518,VALID,0,VALID,18.3979,VALID,333,VALID,0,
2013-07-22, 00:42:04,VALID,916.196,VALID,0,VALID,88.7747,VALID,0,VALID,18.4759,VALID,33,VALID,0,
2013-07-22, 00:43:04,VALID,916.203,VALID,0,VALID,88.2563,VALID,0,VALID,18.6124,VALID,36,VALID,0,
2013-07-22, 00:44:04,VALID,916.303,VALID,0,VALID,87.128,VALID,0,VALID,18.6708,VALID,344,VALID,0,
2013-07-22, 00:45:04,VALID,916.256,VALID,0,VALID,87.2652,VALID,0,VALID,18.7488,VALID,257,VALID,0,
2013-07-22, 00:46:04,VALID,916.301,VALID,0,VALID,87.4558,VALID,0,VALID,18.7488,VALID,257,VALID,0,
2013-07-22, 00:47:04,VALID,916.299,VALID,0,VALID,85.4966,VALID,0,VALID,18.7293,VALID,257,VALID,0,
2013-07-22, 00:48:04,VALID,916.251,VALID,0,VALID,86.8536,VALID,0,VALID,18.7293,VALID,257,VALID,0,
2013-07-22, 00:49:04,VALID,916.243,VALID,0,VALID,86.7773,VALID,0,VALID,18.6903,VALID,257,VALID,0,
2013-07-22, 00:50:04,VALID,916.228,VALID,0,VALID,86.5258,VALID,0,VALID,18.6708,VALID,257,VALID,0,
2013-07-22, 00:51:04,VALID,916.271,VALID,0,VALID,86.7316,VALID,0,VALID,18.6513,VALID,257,VALID,0,
2013-07-22, 00:52:04,VALID,916.243,VALID,0,VALID,86.3199,VALID,0,VALID,18.6319,VALID,257,VALID,0,
2013-07-22, 00:53:04,VALID,916.231,VALID,0,VALID,87.2957,VALID,0,VALID,18.6124,VALID,257,VALID,0,
2013-07-22, 00:54:04,VALID,916.213,VALID,0,VALID,87.7836,VALID,0,VALID,18.6903,VALID,257,VALID,0,
2013-07-22, 00:55:04,VALID,916.236,VALID,0,VALID,87.7913,VALID,0,VALID,18.6918,VALID,257,VALID,0,
2013-07-22, 00:56:04,VALID,916.22,VALID,0,VALID,87.8599,VALID,0,VALID,18.6528,VALID,257,VALID,0,
2013-07-22, 00:57:04,VALID,916.155,VALID,0,VALID,88.0581,VALID,0,VALID,18.6513,VALID,257,VALID,0,
2013-07-22, 00:58:04,VALID,916.165,VALID,0,VALID,88.0733,VALID,0,VALID,18.6513,VALID,257,VALID,0,
2013-07-22, 00:59:04,VALID,916.113,VALID,0,VALID,87.8294,VALID,0,VALID,18.6708,VALID,257,VALID,0,
2013-07-22, 01:00:04,VALID,916.086,VALID,0,VALID,88.2182,VALID,0,VALID,18.6708,VALID,257,VALID,0,
2013-07-22, 01:01:04,VALID,916.095,VALID,0,VALID,86.8688,VALID,0,VALID,18.6889,VALID,257,VALID,0,
2013-07-22, 01:02:04,VALID,916.074,VALID,0,VALID,86.9527,VALID,0,VALID,18.7293,VALID,257,VALID,0,
2013-07-22, 01:03:04,VALID,916.064,VALID,0,VALID,87.2729,VALID,0,VALID,18.7293,VALID,257,VALID,0,
2013-07-22, 01:04:04,VALID,916.076,VALID,0,VALID,86.4114,VALID,0,VALID,18.7864,VALID,257,VALID,0,
2013-07-22, 01:05:04,VALID,916.049,VALID,0,VALID,84.4522,VALID,0,VALID,18.8073,VALID,257,VALID,0,
2013-07-22, 01:06:04,VALID,916.043,VALID,0,VALID,85.367,VALID,0,VALID,18.7864,VALID,257,VALID,0,
2013-07-22, 01:07:04,VALID,916.06,VALID,0,VALID,86.0455,VALID,0,VALID,18.7878,VALID,257,VALID,0,
2013-07-22, 01:08:04,VALID,916.045,VALID,0,VALID,87.0289,VALID,0,VALID,18.7669,VALID,257,VALID,0,
2013-07-22, 01:09:04,VALID,916.008,VALID,0,VALID,87.1128,VALID,0,VALID,18.7279,VALID,257,VALID,0,
2013-07-22, 01:10:04,VALID,916.041,VALID,0,VALID,86.137,VALID,0,VALID,18.6694,VALID,257,VALID,0,
2013-07-22, 01:11:04,VALID,915.998,VALID,0,VALID,86.6325,VALID,0,VALID,18.6304,VALID,257,VALID,0,
2013-07-22, 01:12:04,VALID,915.995,VALID,0,VALID,86.5868,VALID,0,VALID,18.6319,VALID,257,VALID,0,
2013-07-22, 01:13:04,VALID,915.977,VALID,0,VALID,86.3733,VALID,0,VALID,18.5929,VALID,257,VALID,0,
2013-07-22, 01:14:04,VALID,915.994,VALID,0,VALID,86.8841,VALID,0,VALID,18.5734,VALID,257,VALID,0,
2013-07-22, 01:15:04,VALID,915.98,VALID,0,VALID,87.3948,VALID,0,VALID,18.5525,VALID,257,VALID,0,
2013-07-22, 01:16:04,VALID,915.97,VALID,0,VALID,87.8599,VALID,0,VALID,18.5929,VALID,257,VALID,0,
2013-07-22, 01:17:04,VALID,915.961,VALID,0,VALID,86.4267,VALID,0,VALID,18.6124,VALID,257,VALID,0,
2013-07-22, 01:18:04,VALID,915.943,VALID,0,VALID,85.9083,VALID,0,VALID,18.5929,VALID,257,VALID,0,
2013-07-22, 01:19:04,VALID,915.949,VALID,0,VALID,85.2984,VALID,0,VALID,18.5734,VALID,257,VALID,0,
2013-07-22, 01:20:04,VALID,915.971,VALID,0,VALID,85.9921,VALID,0,VALID,18.6109,VALID,257,VALID,0,
2013-07-22, 01:21:05,VALID,915.971,VALID,0,VALID,86.1827,VALID,0,VALID,18.6319,VALID,257,VALID,0,
2013-07-22, 01:22:05,VALID,915.98,VALID,0,VALID,86.602,VALID,0,VALID,18.5914,VALID,257,VALID,0,
2013-07-22, 01:23:05,VALID,915.986,VALID,0,VALID,86.7164,VALID,0,VALID,18.6708,VALID,273,VALID,0,
2013-07-22, 01:24:05,VALID,915.998,VALID,0,VALID,86.2056,VALID,0,VALID,18.6109,VALID,339,VALID,0,
2013-07-22, 01:25:05,VALID,915.995,VALID,0,VALID,85.832,VALID,0,VALID,18.6124,VALID,339,VALID,0,
2013-07-22, 01:26:05,VALID,915.928,VALID,0,VALID,86.0531,VALID,0,VALID,18.5929,VALID,339,VALID,0,
2013-07-22, 01:27:05,VALID,915.913,VALID,0,VALID,85.0621,VALID,0,VALID,18.4745,VALID,339,VALID,0,
2013-07-22, 01:28:05,VALID,915.91,VALID,0,VALID,86.4343,VALID,0,VALID,18.3575,VALID,339,VALID,0,
2013-07-22, 01:29:05,VALID,915.923,VALID,0,VALID,87.6159,VALID,0,VALID,18.3589,VALID,339,VALID,0,
2013-07-22, 01:30:05,VALID,915.917,VALID,0,VALID,86.3809,VALID,0,VALID,18.3784,VALID,339,VALID,0,
2013-07-22, 01:31:05,VALID,915.924,VALID,0,VALID,85.7482,VALID,0,VALID,18.3394,VALID,339,VALID,0,
2013-07-22, 01:32:05,VALID,915.933,VALID,0,VALID,86.8307,VALID,0,VALID,18.299,VALID,339,VALID,0,
2013-07-22, 01:33:05,VALID,915.933,VALID,0,VALID,87.1356,VALID,0,VALID,18.3199,VALID,339,VALID,0,
2013-07-22, 01:34:05,VALID,915.941,VALID,0,VALID,86.48,VALID,0,VALID,18.2809,VALID,339,VALID,0,
2013-07-22, 01:35:05,VALID,915.939,VALID,0,VALID,86.3885,VALID,0,VALID,18.3199,VALID,48,VALID,0,
2013-07-22, 01:36:05,VALID,915.918,VALID,0,VALID,86.015,VALID,0,VALID,18.2809,VALID,48,VALID,0,
2013-07-22, 01:37:05,VALID,915.941,VALID,0,VALID,86.4572,VALID,0,VALID,18.2406,VALID,48,VALID,0,
2013-07-22, 01:38:05,VALID,915.903,VALID,0,VALID,87.0365,VALID,0,VALID,18.242,VALID,48,VALID,0,
2013-07-22, 01:39:05,VALID,915.921,VALID,0,VALID,86.724,VALID,0,VALID,18.2016,VALID,48,VALID,0,
2013-07-22, 01:40:05,VALID,915.904,VALID,0,VALID,86.9679,VALID,0,VALID,18.1835,VALID,48,VALID,0,
2013-07-22, 01:41:05,VALID,915.91,VALID,0,VALID,88.0809,VALID,0,VALID,18.1821,VALID,48,VALID,0,
2013-07-22, 01:42:05,VALID,915.893,VALID,0,VALID,88.1572,VALID,0,VALID,18.164,VALID,48,VALID,0,
2013-07-22, 01:43:05,VALID,915.875,VALID,0,VALID,88.1648,VALID,0,VALID,18.164,VALID,48,VALID,0,
2013-07-22, 01:44:05,VALID,915.875,VALID,0,VALID,88.2334,VALID,0,VALID,18.125,VALID,48,VALID,0,
2013-07-22, 01:45:05,VALID,915.878,VALID,0,VALID,88.3706,VALID,0,VALID,18.0651,VALID,48,VALID,0,
2013-07-22, 01:46:05,VALID,915.884,VALID,0,VALID,88.6603,VALID,0,VALID,18.086,VALID,48,VALID,0,
2013-07-22, 01:47:05,VALID,915.885,VALID,0,VALID,88.6603,VALID,0,VALID,18.086,VALID,48,VALID,0,
2013-07-22, 01:48:05,VALID,915.869,VALID,0,VALID,88.7823,VALID,0,VALID,18.0651,VALID,48,VALID,0,
2013-07-22, 01:49:05,VALID,915.877,VALID,0,VALID,89.3159,VALID,0,VALID,18.086,VALID,48,VALID,0,
2013-07-22, 01:50:05,VALID,915.878,VALID,0,VALID,87.4711,VALID,0,VALID,18.0275,VALID,48,VALID,0,
2013-07-22, 01:51:05,VALID,915.868,VALID,0,VALID,87.1661,VALID,0,VALID,17.8702,VALID,48,VALID,0,
2013-07-22, 01:52:05,VALID,915.837,VALID,0,VALID,89.6056,VALID,0,VALID,17.8131,VALID,48,VALID,0,
2013-07-22, 01:53:05,VALID,915.87,VALID,0,VALID,89.6285,VALID,0,VALID,17.7157,VALID,48,VALID,0,
2013-07-22, 01:54:05,VALID,915.845,VALID,0,VALID,90.772,VALID,0,VALID,17.7157,VALID,48,VALID,0,
2013-07-22, 01:55:05,VALID,915.806,VALID,0,VALID,91.0922,VALID,0,VALID,17.7352,VALID,48,VALID,0,
2013-07-22, 01:56:05,VALID,915.792,VALID,0,VALID,90.9092,VALID,0,VALID,17.7547,VALID,48,VALID,0,
2013-07-22, 01:57:05,VALID,915.812,VALID,0,VALID,90.7796,VALID,0,VALID,17.7157,VALID,48,VALID,0,
2013-07-22, 01:58:05,VALID,915.848,VALID,0,VALID,90.8025,VALID,0,VALID,17.7365,VALID,48,VALID,0,
2013-07-22, 01:59:05,VALID,915.832,VALID,0,VALID,89.6971,VALID,0,VALID,17.6767,VALID,48,VALID,0,
2013-07-22, 02:00:05,VALID,915.869,VALID,0,VALID,89.1177,VALID,0,VALID,17.6001,VALID,48,VALID,0,
2013-07-22, 02:01:05,VALID,915.828,VALID,0,VALID,90.1621,VALID,0.107441,VALID,17.5779,VALID,48,VALID,0,
2013-07-22, 02:02:05,VALID,915.837,VALID,0,VALID,89.6514,VALID,0,VALID,17.5,VALID,48,VALID,0,
2013-07-22, 02:03:05,VALID,915.839,VALID,0,VALID,89.6361,VALID,0,VALID,17.4623,VALID,48,VALID,0,
2013-07-22, 02:04:05,VALID,915.813,VALID,0,VALID,90.5433,VALID,0,VALID,17.4818,VALID,48,VALID,0,
2013-07-22, 02:05:05,VALID,915.829,VALID,0,VALID,90.7873,VALID,0,VALID,17.5221,VALID,48,VALID,0,
2013-07-22, 02:06:05,VALID,915.799,VALID,0,VALID,90.429,VALID,0,VALID,17.5403,VALID,48,VALID,0,
2013-07-22, 02:07:05,VALID,915.781,VALID,0,VALID,90.4442,VALID,0,VALID,17.5987,VALID,48,VALID,0,
2013-07-22, 02:08:05,VALID,915.735,VALID,0,VALID,90.7034,VALID,0,VALID,17.6767,VALID,48,VALID,0,
2013-07-22, 02:09:05,VALID,915.765,VALID,0,VALID,90.6195,VALID,0,VALID,17.7157,VALID,48,VALID,0,
2013-07-22, 02:10:05,VALID,915.737,VALID,0,VALID,90.1469,VALID,0,VALID,17.6962,VALID,48,VALID,0,
2013-07-22, 02:11:05,VALID,915.735,VALID,0,VALID,91.0083,VALID,0,VALID,17.7338,VALID,48,VALID,0,
2013-07-22, 02:12:05,VALID,915.74,VALID,0,VALID,91.3971,VALID,0,VALID,17.7936,VALID,48,VALID,0,
2013-07-22, 02:13:05,VALID,915.714,VALID,0,VALID,91.1379,VALID,0,VALID,17.8326,VALID,48,VALID,0,
2013-07-22, 02:14:05,VALID,915.735,VALID,0,VALID,91.1761,VALID,0,VALID,17.8911,VALID,48,VALID,0,
2013-07-22, 02:15:05,VALID,915.712,VALID,0,VALID,91.1989,VALID,0,VALID,17.9106,VALID,48,VALID,0,
2013-07-22, 02:16:05,VALID,915.722,VALID,0,VALID,91.0465,VALID,0,VALID,17.9496,VALID,48,VALID,0,
2013-07-22, 02:17:05,VALID,915.722,VALID,0,VALID,90.9702,VALID,0,VALID,17.9899,VALID,48,VALID,0,
2013-07-22, 02:18:05,VALID,915.741,VALID,0,VALID,91.0312,VALID,0,VALID,17.9886,VALID,48,VALID,0,
2013-07-22, 02:19:05,VALID,915.755,VALID,0,VALID,91.1227,VALID,0,VALID,18.0275,VALID,48,VALID,0,
2013-07-22, 02:20:05,VALID,915.766,VALID,0,VALID,91.1227,VALID,0,VALID,18.086,VALID,48,VALID,0,
2013-07-22, 02:21:05,VALID,915.759,VALID,0,VALID,90.8559,VALID,0,VALID,18.086,VALID,48,VALID,0,
2013-07-22, 02:22:05,VALID,915.782,VALID,0,VALID,90.8711,VALID,0,VALID,18.125,VALID,48,VALID,0,
2013-07-22, 02:23:05,VALID,915.779,VALID,0,VALID,90.7187,VALID,0,VALID,18.1445,VALID,48,VALID,0,
2013-07-22, 02:24:05,VALID,915.786,VALID,0,VALID,90.4213,VALID,0,VALID,18.1835,VALID,48,VALID,0,
2013-07-22, 02:25:05,VALID,915.8,VALID,0,VALID,90.3604,VALID,0,VALID,18.2225,VALID,48,VALID,0,
2013-07-22, 02:26:05,VALID,915.782,VALID,0,VALID,90.0554,VALID,0,VALID,18.242,VALID,48,VALID,0,
2013-07-22, 02:27:05,VALID,915.79,VALID,0,VALID,90.0402,VALID,0,VALID,18.3004,VALID,48,VALID,0,
2013-07-22, 02:28:05,VALID,915.796,VALID,0,VALID,89.6742,VALID,0,VALID,18.3394,VALID,48,VALID,0,
2013-07-22, 02:29:05,VALID,915.815,VALID,0,VALID,89.3083,VALID,0,VALID,18.3199,VALID,48,VALID,0,
2013-07-22, 02:30:05,VALID,915.827,VALID,0,VALID,89.6361,VALID,0,VALID,18.3004,VALID,48,VALID,0,
2013-07-22, 02:31:05,VALID,915.829,VALID,0,VALID,89.9487,VALID,0,VALID,18.299,VALID,48,VALID,0,
2013-07-22, 02:32:05,VALID,915.824,VALID,0,VALID,90.0402,VALID,0.107441,VALID,18.3185,VALID,48,VALID,0,
2013-07-22, 02:33:05,VALID,915.799,VALID,0,VALID,90.1393,VALID,0.107441,VALID,18.3575,VALID,48,VALID,0,
2013-07-22, 02:34:05,VALID,915.769,VALID,0,VALID,89.9258,VALID,0.107441,VALID,18.4355,VALID,48,VALID,0,
2013-07-22, 02:35:05,VALID,915.758,VALID,0,VALID,89.4608,VALID,0,VALID,18.4745,VALID,48,VALID,0,
2013-07-22, 02:36:05,VALID,915.734,VALID,0,VALID,88.9119,VALID,0,VALID,18.494,VALID,48,VALID,0,
2013-07-22, 02:37:05,VALID,915.715,VALID,0,VALID,89.072,VALID,0,VALID,18.5135,VALID,48,VALID,0,
2013-07-22, 02:38:05,VALID,915.727,VALID,0,VALID,88.7061,VALID,0,VALID,18.494,VALID,48,VALID,0,
2013-07-22, 02:39:05,VALID,915.727,VALID,0,VALID,89.0949,VALID,0,VALID,18.494,VALID,48,VALID,0,
2013-07-22, 02:40:05,VALID,915.703,VALID,0,VALID,88.6146,VALID,0,VALID,18.494,VALID,48,VALID,0,
2013-07-22, 02:41:05,VALID,915.747,VALID,0,VALID,88.9805,VALID,0.107441,VALID,18.5539,VALID,48,VALID,0,
2013-07-22, 02:42:05,VALID,915.726,VALID,0,VALID,88.9271,VALID,0,VALID,18.5525,VALID,48,VALID,0,
2013-07-22, 02:43:05,VALID,915.698,VALID,0,VALID,88.7137,VALID,0.107441,VALID,18.5525,VALID,48,VALID,0,
2013-07-22, 02:44:05,VALID,915.698,VALID,0,VALID,88.6603,VALID,0,VALID,18.572,VALID,48,VALID,0,
2013-07-22, 02:45:05,VALID,915.71,VALID,0,VALID,88.485,VALID,0.107441,VALID,18.572,VALID,48,VALID,0,
2013-07-22, 02:46:05,VALID,915.7,VALID,0,VALID,88.4774,VALID,0,VALID,18.5734,VALID,48,VALID,0,
2013-07-22, 02:47:05,VALID,915.675,VALID,0,VALID,87.1585,VALID,0,VALID,18.4954,VALID,48,VALID,0,
2013-07-22, 02:48:05,VALID,915.668,VALID,0,VALID,88.1038,VALID,0,VALID,18.4968,VALID,48,VALID,0,
2013-07-22, 02:49:05,VALID,915.679,VALID,0,VALID,88.8204,VALID,0,VALID,18.4564,VALID,48,VALID,0,
2013-07-22, 02:50:05,VALID,915.65,VALID,0,VALID,88.9881,VALID,0,VALID,18.4188,VALID,48,VALID,0,
2013-07-22, 02:51:05,VALID,915.694,VALID,0,VALID,89.2854,VALID,0,VALID,18.3589,VALID,48,VALID,0,
2013-07-22, 02:52:05,VALID,915.639,VALID,0,VALID,89.7657,VALID,0,VALID,18.3394,VALID,48,VALID,0,
2013-07-22, 02:53:05,VALID,915.668,VALID,0,VALID,89.8267,VALID,0,VALID,18.3394,VALID,48,VALID,0,
2013-07-22, 02:54:05,VALID,915.647,VALID,0,VALID,88.95,VALID,0,VALID,18.3394,VALID,48,VALID,0,
2013-07-22, 02:55:05,VALID,915.664,VALID,0,VALID,89.0567,VALID,0,VALID,18.2628,VALID,48,VALID,0,
2013-07-22, 02:56:05,VALID,915.667,VALID,0,VALID,89.9563,VALID,0,VALID,18.2809,VALID,11,VALID,0,
2013-07-22, 02:57:05,VALID,915.545,VALID,0,VALID,89.194,VALID,0,VALID,18.4174,VALID,35,VALID,0,
2013-07-22, 02:58:05,VALID,915.603,VALID,0,VALID,87.7989,VALID,0,VALID,18.5748,VALID,227,VALID,0,
2013-07-22, 02:59:05,VALID,915.59,VALID,0,VALID,87.3872,VALID,0,VALID,18.7697,VALID,263,VALID,0,
2013-07-22, 03:00:05,VALID,915.596,VALID,0,VALID,86.48,VALID,0,VALID,18.9438,VALID,263,VALID,0,
2013-07-22, 03:01:05,VALID,915.593,VALID,0,VALID,86.0074,VALID,0,VALID,19.0413,VALID,263,VALID,0,
2013-07-22, 03:02:05,VALID,915.58,VALID,0,VALID,85.0545,VALID,0.107441,VALID,19.0398,VALID,263,VALID,0,
2013-07-22, 03:03:05,VALID,915.566,VALID,0,VALID,85.1154,VALID,0.107441,VALID,19.0203,VALID,263,VALID,0,
2013-07-22, 03:04:05,VALID,915.556,VALID,0,VALID,85.6338,VALID,0.107441,VALID,19.0203,VALID,302,VALID,0,
2013-07-22, 03:05:05,VALID,915.574,VALID,0,VALID,85.3213,VALID,0.107441,VALID,19.1193,VALID,309,VALID,0,
2013-07-22, 03:06:05,VALID,915.587,VALID,0,VALID,84.7114,VALID,0,VALID,19.1958,VALID,309,VALID,0,
2013-07-22, 03:07:05,VALID,915.607,VALID,0,VALID,84.2921,VALID,0,VALID,19.2153,VALID,309,VALID,0,
2013-07-22, 03:08:05,VALID,915.627,VALID,0,VALID,84.6275,VALID,0,VALID,19.2153,VALID,309,VALID,0,
2013-07-22, 03:09:05,VALID,915.633,VALID,0,VALID,84.2692,VALID,0,VALID,19.1763,VALID,309,VALID,0,
2013-07-22, 03:10:05,VALID,915.59,VALID,0,VALID,84.8258,VALID,0,VALID,19.1568,VALID,309,VALID,0,
2013-07-22, 03:11:05,VALID,915.572,VALID,0,VALID,84.8258,VALID,0.107441,VALID,19.1373,VALID,309,VALID,0,
2013-07-22, 03:12:05,VALID,915.547,VALID,0,VALID,84.7343,VALID,0.107441,VALID,19.0983,VALID,309,VALID,0,
2013-07-22, 03:13:05,VALID,915.539,VALID,0,VALID,84.0787,VALID,0,VALID,19.0203,VALID,309,VALID,0,
2013-07-22, 03:14:05,VALID,915.494,VALID,0,VALID,84.9858,VALID,0.107441,VALID,18.9424,VALID,309,VALID,0,
2013-07-22, 03:15:05,VALID,915.476,VALID,0,VALID,85.4661,VALID,0.107441,VALID,18.8644,VALID,309,VALID,0,
2013-07-22, 03:16:05,VALID,915.459,VALID,0,VALID,85.8473,VALID,0,VALID,18.8268,VALID,309,VALID,0,
2013-07-22, 03:17:05,VALID,915.427,VALID,0,VALID,85.7482,VALID,0,VALID,18.7474,VALID,309,VALID,0,
2013-07-22, 03:18:05,VALID,915.425,VALID,0,VALID,86.1598,VALID,0,VALID,18.7488,VALID,309,VALID,0,
2013-07-22, 03:19:05,VALID,915.431,VALID,0,VALID,86.0303,VALID,0,VALID,18.7098,VALID,309,VALID,0,
2013-07-22, 03:20:05,VALID,915.408,VALID,0,VALID,86.1065,VALID,0,VALID,18.7098,VALID,309,VALID,0,
2013-07-22, 03:21:05,VALID,915.397,VALID,0,VALID,86.2285,VALID,0,VALID,18.7098,VALID,309,VALID,0,
2013-07-22, 03:22:05,VALID,915.37,VALID,0,VALID,85.7024,VALID,0,VALID,18.6903,VALID,309,VALID,0,
2013-07-22, 03:23:05,VALID,915.415,VALID,0,VALID,86.3885,VALID,0,VALID,18.5539,VALID,309,VALID,0,
2013-07-22, 03:24:05,VALID,915.413,VALID,0,VALID,86.9603,VALID,0,VALID,18.4174,VALID,37,VALID,0,
2013-07-22, 03:25:05,VALID,915.4,VALID,0,VALID,87.3415,VALID,0,VALID,18.2796,VALID,38,VALID,0,
2013-07-22, 03:26:05,VALID,915.425,VALID,0,VALID,87.5854,VALID,0,VALID,18.2615,VALID,38,VALID,0,
2013-07-22, 03:27:05,VALID,915.409,VALID,0,VALID,88.0047,VALID,0,VALID,18.2225,VALID,38,VALID,0,
2013-07-22, 03:28:05,VALID,915.413,VALID,0,VALID,87.837,VALID,0,VALID,18.242,VALID,38,VALID,0,
2013-07-22, 03:29:05,VALID,915.395,VALID,0,VALID,87.5549,VALID,0,VALID,18.2809,VALID,38,VALID,0,
2013-07-22, 03:30:05,VALID,915.392,VALID,0,VALID,87.4253,VALID,0,VALID,18.2809,VALID,38,VALID,0,
2013-07-22, 03:31:05,VALID,915.383,VALID,0,VALID,87.6845,VALID,0,VALID,18.2615,VALID,38,VALID,0,
2013-07-22, 03:32:05,VALID,915.378,VALID,0,VALID,88.0809,VALID,0,VALID,18.242,VALID,38,VALID,0,
2013-07-22, 03:33:05,VALID,915.37,VALID,0,VALID,88.6222,VALID,0,VALID,18.2615,VALID,38,VALID,0,
2013-07-22, 03:34:05,VALID,915.362,VALID,0,VALID,88.3554,VALID,0,VALID,18.2809,VALID,38,VALID,0,
2013-07-22, 03:35:05,VALID,915.363,VALID,0,VALID,88.241,VALID,0,VALID,18.3394,VALID,38,VALID,0,
2013-07-22, 03:36:05,VALID,915.325,VALID,0,VALID,87.9513,VALID,0,VALID,18.3784,VALID,38,VALID,0,
2013-07-22, 03:37:05,VALID,915.338,VALID,0,VALID,87.7226,VALID,0,VALID,18.3979,VALID,38,VALID,0,
2013-07-22, 03:38:05,VALID,915.316,VALID,0,VALID,87.5321,VALID,0,VALID,18.3575,VALID,38,VALID,0,
2013-07-22, 03:39:05,VALID,915.323,VALID,0,VALID,87.5016,VALID,0,VALID,18.3394,VALID,38,VALID,0,
2013-07-22, 03:40:05,VALID,915.379,VALID,0,VALID,87.3872,VALID,0,VALID,18.3589,VALID,38,VALID,0,
2013-07-22, 03:41:05,VALID,915.384,VALID,0,VALID,87.2424,VALID,0,VALID,18.3784,VALID,38,VALID,0,
2013-07-22, 03:42:05,VALID,915.396,VALID,0,VALID,87.1433,VALID,0,VALID,18.3979,VALID,38,VALID,0,
2013-07-22, 03:43:05,VALID,915.369,VALID,0,VALID,87.0061,VALID,0,VALID,18.4369,VALID,38,VALID,0,
2013-07-22, 03:44:05,VALID,915.387,VALID,0,VALID,86.9984,VALID,0,VALID,18.4174,VALID,38,VALID,0,
2013-07-22, 03:45:05,VALID,915.369,VALID,0,VALID,85.4432,VALID,0,VALID,18.4759,VALID,318,VALID,0,
2013-07-22, 03:46:05,VALID,915.369,VALID,0,VALID,85.1536,VALID,0,VALID,18.5929,VALID,308,VALID,0,
2013-07-22, 03:47:05,VALID,915.348,VALID,0,VALID,85.1383,VALID,0,VALID,18.5734,VALID,308,VALID,0,
2013-07-22, 03:48:05,VALID,915.356,VALID,0,VALID,84.8258,VALID,0,VALID,18.5539,VALID,309,VALID,0,
2013-07-22, 03:49:05,VALID,915.366,VALID,0,VALID,84.841,VALID,0,VALID,18.5929,VALID,310,VALID,0,
2013-07-22, 03:50:05,VALID,915.328,VALID,0,VALID,84.7953,VALID,0,VALID,18.6124,VALID,310,VALID,0,
2013-07-22, 03:51:05,VALID,915.36,VALID,0,VALID,84.5589,VALID,0,VALID,18.5929,VALID,310,VALID,0,
2013-07-22, 03:52:05,VALID,915.357,VALID,0,VALID,84.2769,VALID,0,VALID,18.6124,VALID,310,VALID,0,
2013-07-22, 03:53:05,VALID,915.354,VALID,0,VALID,84.0634,VALID,0,VALID,18.6124,VALID,310,VALID,0,
2013-07-22, 03:54:05,VALID,915.316,VALID,0,VALID,84.7038,VALID,0,VALID,18.5149,VALID,310,VALID,0,
2013-07-22, 03:55:05,VALID,915.318,VALID,0,VALID,84.8639,VALID,0,VALID,18.4564,VALID,310,VALID,0,
2013-07-22, 03:56:05,VALID,915.318,VALID,0,VALID,84.7114,VALID,0,VALID,18.4564,VALID,310,VALID,0,
2013-07-22, 03:57:05,VALID,915.34,VALID,0,VALID,84.4446,VALID,0,VALID,18.5149,VALID,310,VALID,0,
2013-07-22, 03:58:05,VALID,915.29,VALID,0,VALID,84.3683,VALID,0,VALID,18.5149,VALID,342,VALID,0,
2013-07-22, 03:59:05,VALID,915.339,VALID,0,VALID,84.193,VALID,0,VALID,18.4954,VALID,14,VALID,0,
2013-07-22, 04:00:05,VALID,915.312,VALID,0,VALID,84.5056,VALID,0,VALID,18.4174,VALID,14,VALID,0,